| time (UTC) | temp C | wind direction | speed KPH | gust KPH | rain 1hr cm | rain 24hr cm | rain mn cm | humidity % | barometer mb |
| 20260507031541 | 7 | 345 | 0.0 | 0.0 | 0.00 | 0.00 | 0.00 | 44 | 1013.8 |
| 20260507030042 | 7 | 345 | 0.0 | 0.0 | 0.00 | 0.00 | 0.00 | 43 | 1013.9 |
| 20260507024540 | 8 | 345 | 0.0 | 0.0 | 0.00 | 0.00 | 0.00 | 41 | 1014.0 |
| 20260507023039 | 8 | 345 | 0.0 | 0.0 | 0.00 | 0.00 | 0.00 | 37 | 1013.9 |
| 20260507021539 | 9 | 345 | 0.0 | 0.0 | 0.00 | 0.00 | 0.00 | 35 | 1013.9 |
| 20260507020039 | 10 | 321 | 0.0 | 1.6 | 0.00 | 0.00 | 0.00 | 34 | 1014.0 |
| 20260507014551 | 10 | 321 | 0.0 | 1.6 | 0.00 | 0.00 | 0.00 | 34 | 1013.9 |
| 20260507013045 | 10 | 353 | 0.0 | 3.2 | 0.00 | 0.00 | 0.00 | 34 | 1013.9 |
| 20260507011540 | 10 | 346 | 1.6 | 8.0 | 0.00 | 0.00 | 0.00 | 33 | 1013.8 |
| 20260507010037 | 11 | 314 | 4.8 | 11.3 | 0.00 | 0.00 | 0.00 | 32 | 1013.9 |
| 20260507004536 | 11 | 354 | 4.8 | 9.7 | 0.00 | 0.00 | 0.00 | 32 | 1013.9 |
| 20260507003037 | 11 | 316 | 3.2 | 11.3 | 0.00 | 0.00 | 0.00 | 32 | 1013.9 |
| 20260507001539 | 11 | 330 | 4.8 | 16.1 | 0.00 | 0.00 | 0.00 | 32 | 1014.0 |
| 20260507000034 | 11 | 319 | 3.2 | 11.3 | 0.00 | 0.00 | 0.00 | 33 | 1014.1 |
| 20260506234533 | 11 | 318 | 3.2 | 9.7 | 0.00 | 0.00 | 0.00 | 33 | 1014.2 |
| 20260506233033 | 12 | 314 | 4.8 | 12.9 | 0.00 | 0.00 | 0.00 | 32 | 1014.3 |
| 20260506231530 | 11 | 301 | 6.4 | 16.1 | 0.00 | 0.00 | 0.00 | 32 | 1014.4 |
| 20260506230030 | 11 | 20 | 8.0 | 25.7 | 0.00 | 0.00 | 0.00 | 32 | 1014.5 |
| 20260506224526 | 12 | 318 | 4.8 | 19.3 | 0.00 | 0.00 | 0.00 | 33 | 1014.6 |
| 20260506223025 | 11 | 277 | 4.8 | 12.9 | 0.00 | 0.00 | 0.00 | 33 | 1014.8 |
| 20260506221524 | 11 | 304 | 6.4 | 20.9 | 0.00 | 0.00 | 0.00 | 33 | 1014.9 |
| 20260506220024 | 11 | 229 | 4.8 | 16.1 | 0.00 | 0.00 | 0.00 | 35 | 1014.9 |
| 20260506214523 | 11 | 20 | 4.8 | 16.1 | 0.00 | 0.00 | 0.00 | 34 | 1015.0 |
| 20260506213022 | 11 | 257 | 4.8 | 12.9 | 0.00 | 0.00 | 0.00 | 34 | 1015.1 |
| 20260506211522 | 11 | 307 | 4.8 | 19.3 | 0.00 | 0.00 | 0.00 | 34 | 1015.4 |
| 20260506210018 | 11 | 324 | 8.0 | 19.3 | 0.00 | 0.00 | 0.00 | 35 | 1015.5 |
| 20260506204519 | 11 | 330 | 9.7 | 19.3 | 0.00 | 0.00 | 0.00 | 35 | 1015.8 |
| 20260506203021 | 11 | 318 | 8.0 | 22.5 | 0.00 | 0.00 | 0.00 | 36 | 1015.8 |
| 20260506201515 | 11 | 338 | 8.0 | 16.1 | 0.00 | 0.00 | 0.00 | 36 | 1016.2 |
| 20260506200014 | 10 | 329 | 8.0 | 19.3 | 0.00 | 0.00 | 0.00 | 35 | 1016.3 |
| 20260506194512 | 10 | 347 | 9.7 | 19.3 | 0.00 | 0.00 | 0.00 | 37 | 1016.5 |
| 20260506193008 | 10 | 245 | 9.7 | 24.1 | 0.00 | 0.00 | 0.00 | 38 | 1016.6 |
| 20260506191508 | 10 | 279 | 9.7 | 20.9 | 0.00 | 0.00 | 0.00 | 38 | 1016.7 |
| 20260506190008 | 10 | 312 | 11.3 | 24.1 | 0.00 | 0.00 | 0.00 | 38 | 1016.8 |
| 20260506184503 | 8 | 323 | 9.7 | 20.9 | 0.00 | 0.00 | 0.00 | 39 | 1017.0 |
| 20260506183005 | 9 | 283 | 6.4 | 19.3 | 0.00 | 0.00 | 0.00 | 40 | 1017.1 |
| 20260506181601 | 8 | 294 | 8.0 | 20.9 | 0.00 | 0.00 | 0.00 | 40 | 1017.2 |
| 20260506180106 | 8 | 300 | 8.0 | 22.5 | 0.00 | 0.00 | 0.00 | 37 | 1017.2 |
| 20260506174558 | 8 | 37 | 6.4 | 24.1 | 0.00 | 0.00 | 0.00 | 39 | 1017.3 |
| 20260506173117 | 8 | 276 | 8.0 | 20.9 | 0.00 | 0.00 | 0.00 | 38 | 1017.5 |
| 20260506171600 | 7 | 311 | 4.8 | 24.1 | 0.00 | 0.00 | 0.00 | 40 | 1017.6 |
| 20260506170052 | 7 | 309 | 6.4 | 22.5 | 0.00 | 0.00 | 0.00 | 40 | 1017.6 |
| 20260506164550 | 7 | 348 | 9.7 | 24.1 | 0.00 | 0.00 | 0.00 | 41 | 1017.5 |
| 20260506163050 | 7 | 352 | 3.2 | 20.9 | 0.00 | 0.00 | 0.00 | 43 | 1017.6 |
| 20260506161554 | 7 | 344 | 9.7 | 22.5 | 0.00 | 0.00 | 0.00 | 41 | 1017.7 |
| 20260506160050 | 7 | 4 | 8.0 | 24.1 | 0.00 | 0.00 | 0.00 | 43 | 1017.5 |
| 20260506154545 | 7 | 307 | 11.3 | 20.9 | 0.00 | 0.00 | 0.00 | 43 | 1017.6 |
| 20260506153045 | 7 | 354 | 8.0 | 19.3 | 0.00 | 0.00 | 0.00 | 45 | 1017.5 |
| 20260506151543 | 7 | 334 | 4.8 | 14.5 | 0.00 | 0.00 | 0.00 | 46 | 1017.5 |
| 20260506150040 | 6 | 355 | 6.4 | 17.7 | 0.00 | 0.00 | 0.00 | 47 | 1017.6 |
| 20260506144538 | 6 | 331 | 8.0 | 17.7 | 0.00 | 0.00 | 0.00 | 47 | 1017.6 |
| 20260506143036 | 6 | 342 | 6.4 | 12.9 | 0.00 | 0.00 | 0.00 | 50 | 1017.4 |
| 20260506141533 | 5 | 298 | 4.8 | 12.9 | 0.00 | 0.00 | 0.00 | 51 | 1017.3 |
| 20260506140031 | 5 | 342 | 4.8 | 9.7 | 0.00 | 0.00 | 0.00 | 53 | 1017.4 |
| 20260506134602 | 4 | 322 | 3.2 | 9.7 | 0.00 | 0.00 | 0.00 | 54 | 1017.4 |
| 20260506133025 | 4 | 336 | 3.2 | 6.4 | 0.00 | 0.00 | 0.00 | 55 | 1017.3 |
| 20260506131527 | 3 | 6 | 1.6 | 6.4 | 0.00 | 0.00 | 0.00 | 59 | 1017.3 |
| 20260506130022 | 2 | 289 | 3.2 | 4.8 | 0.00 | 0.00 | 0.00 | 62 | 1017.2 |
| 20260506124520 | 1 | 323 | 1.6 | 6.4 | 0.00 | 0.00 | 0.00 | 64 | 1017.1 |
| 20260506123018 | 0 | 296 | 0.0 | 1.6 | 0.00 | 0.00 | 0.00 | 66 | 1016.9 |
| 20260506121517 | 0 | 296 | 0.0 | 1.6 | 0.00 | 0.00 | 0.00 | 68 | 1016.8 |
| 20260506120015 | 0 | 328 | 0.0 | 3.2 | 0.00 | 0.00 | 0.00 | 68 | 1016.7 |
| 20260506114521 | 0 | 299 | 0.0 | 1.6 | 0.00 | 0.00 | 0.00 | 68 | 1016.3 |
| 20260506113010 | 0 | 316 | 0.0 | 3.2 | 0.00 | 0.00 | 0.00 | 68 | 1016.1 |
| 20260506111509 | 0 | 335 | 0.0 | 1.6 | 0.00 | 0.00 | 0.00 | 67 | 1016.1 |
| 20260506110012 | 0 | 250 | 0.0 | 0.0 | 0.00 | 0.00 | 0.00 | 67 | 1015.9 |
| 20260506104505 | 0 | 193 | 0.0 | 1.6 | 0.00 | 0.00 | 0.00 | 66 | 1015.7 |
| 20260506103017 | 0 | 298 | 0.0 | 0.0 | 0.00 | 0.00 | 0.00 | 68 | 1015.7 |
| 20260506101504 | 0 | 297 | 0.0 | 0.0 | 0.00 | 0.00 | 0.00 | 69 | 1015.7 |
| 20260506100002 | 0 | 297 | 0.0 | 0.0 | 0.00 | 0.00 | 0.00 | 68 | 1015.5 |
| 20260506094502 | 0 | 297 | 0.0 | 0.0 | 0.00 | 0.00 | 0.00 | 68 | 1015.4 |
| 20260506093101 | 0 | 271 | 0.0 | 0.0 | 0.00 | 0.00 | 0.00 | 69 | 1015.3 |
| 20260506091556 | 0 | 271 | 0.0 | 0.0 | 0.00 | 0.00 | 0.00 | 66 | 1015.1 |
| 20260506090053 | 0 | 316 | 0.0 | 0.0 | 0.00 | 0.00 | 0.00 | 65 | 1014.9 |
| 20260506084551 | 0 | 316 | 0.0 | 0.0 | 0.00 | 0.00 | 0.00 | 63 | 1014.8 |
| 20260506083108 | 0 | 316 | 0.0 | 0.0 | 0.00 | 0.00 | 0.00 | 63 | 1014.6 |
| 20260506081550 | 1 | 316 | 0.0 | 0.0 | 0.00 | 0.00 | 0.00 | 62 | 1014.7 |
| 20260506073041 | 1 | 325 | 0.0 | 0.0 | 0.00 | 0.00 | 0.00 | 58 | 1014.5 |
| 20260506071539 | 2 | 325 | 0.0 | 1.6 | 0.00 | 0.00 | 0.00 | 57 | 1014.5 |
| 20260506061537 | 2 | 345 | 0.0 | 1.6 | 0.00 | 0.00 | 0.00 | 54 | 1014.5 |
| 20260506044519 | 4 | 344 | 0.0 | 3.2 | 0.00 | 0.00 | 0.00 | 50 | 1013.8 |
| 20260506043017 | 4 | 353 | 1.6 | 6.4 | 0.00 | 0.00 | 0.00 | 50 | 1013.6 |
| 20260506041517 | 5 | 11 | 0.0 | 8.0 | 0.00 | 0.00 | 0.00 | 49 | 1013.8 |
| 20260506040021 | 5 | 358 | 1.6 | 6.4 | 0.00 | 0.00 | 0.00 | 47 | 1013.7 |
| 20260506034514 | 6 | 343 | 1.6 | 9.7 | 0.00 | 0.00 | 0.00 | 45 | 1013.6 |
| 20260506033015 | 6 | 334 | 1.6 | 8.0 | 0.00 | 0.00 | 0.00 | 44 | 1013.6 |